Location: Michelbach Markt
(48.1000°N, 15.7500°E)
Time: 22:27:28
(UTC+02:00)

X-37B - Pass Details

Date: 03 February 2022
Orbit: 328 x 343 km, 45.0° (Epoch: 15 May)

Event Time Altitude Azimuth Distance (km) Brightness Sun altitude
Rises 19:22:52 0° 271° (W) 2,117 5.8 -24.1°
Reaches altitude 10° 19:25:03 10° 258° (WSW) 1,274 4.2 -24.4°
Enters shadow 19:26:07 18° 243° (WSW) 925 3.1 -24.6°
